Berlin, NH

2:51 AM EDT on June 24, 2017 (GMT -0400)
Berlin Municipal

Weather History for KBML - October, 2010

Change the Weather History Date:

Thursday, October 28, 2010

  Actual Average Record
Temperature  
Mean Temperature 48 °F -  
Max Temperature 66 °F 46 °F 66 °F (2010)
Min Temperature 32 °F 26 °F 16 °F (1999)
Degree Days  
Heating Degree Days 17    
Moisture  
Dew Point 36 °F    
Average Humidity 85    
Maximum Humidity 100    
Minimum Humidity 34    
Precipitation  
Precipitation 0.00 in - - ()
Sea Level Pressure  
Sea Level Pressure 29.78 in    
Wind  
Wind Speed 1 mph (WSW)    
Max Wind Speed 14 mph    
Max Gust Speed 33 mph    
Visibility 4 miles    
Events Fog    
Averages and records for this station are not official NWS values.
T = Trace of Precipitation, MM = Missing Value Source: NWS Daily Summary

Daily Weather History Graph

Daily Weather History Graph

Search for Another Location

Airport or City:

Trip Planner

Search our weather history database for the weather conditions in past years. The results will help you decide how hot, cold, wet, or windy it might be!

Date:

Astronomy

Oct. 28, 2010 Rise Set
Actual Time 7:16 AM EDT 5:39 PM EDT
Civil Twilight 6:46 AM EDT 6:09 PM EDT
Nautical Twilight 6:12 AM EDT 6:43 PM EDT
Astronomical Twilight 5:38 AM EDT 7:17 PM EDT
Moon 10:00 PM EDT (10/28) 12:42 PM EDT (10/28)
Length of Visible Light 11h 22m
Length of Day
10h 22m
Waning Gibbous, 70% of the Moon is Illuminated
Oct 28
Waning Gibbous
Oct 30
Last Quarter
Nov 6
New
Nov 13
First Quarter
Nov 21
Full

Hourly Weather History & Observations

Time (EDT) Temp. Dew Point Humidity Pressure Visibility Wind Dir Wind Speed Gust Speed Precip Events Conditions
12:04 AM 41.0 °F 41.0 °F 100% 29.81 in 0.5 mi Calm Calm - N/A Fog Fog
12:11 AM 42.8 °F 41.0 °F 93% 29.81 in 0.2 mi Calm Calm - N/A Fog Fog
12:52 AM 39.9 °F 39.9 °F 100% 29.82 in 0.2 mi Calm Calm - N/A Fog Fog
1:01 AM 39.2 °F 39.2 °F 100% 29.81 in 0.2 mi Calm Calm - N/A Fog Fog
1:12 AM 39.2 °F 39.2 °F 100% 29.81 in 0.5 mi Calm Calm - N/A Fog Fog
1:22 AM 37.4 °F 37.4 °F 100% 29.81 in 0.2 mi Calm Calm - N/A Fog Fog
1:52 AM 37.9 °F 37.0 °F 97% 29.83 in 0.2 mi Calm Calm - N/A Fog Fog
2:47 AM 37.4 °F 35.6 °F 93% 29.79 in 0.5 mi Calm Calm - N/A Fog Fog
2:52 AM 37.9 °F 37.0 °F 97% 29.81 in 0.2 mi Calm Calm - N/A Fog Fog
3:12 AM 37.4 °F 35.6 °F 93% 29.79 in 0.5 mi Calm Calm - N/A Fog Fog
3:25 AM 37.4 °F 35.6 °F 93% 29.78 in 0.2 mi Calm Calm - N/A Fog Fog
3:41 AM 35.6 °F 35.6 °F 100% 29.78 in 0.5 mi Calm Calm - N/A Fog Fog
3:52 AM 35.1 °F 35.1 °F 100% 29.80 in 0.8 mi Calm Calm - N/A   Overcast
4:00 AM 35.6 °F 35.6 °F 100% 29.78 in 0.5 mi Calm Calm - N/A Fog Fog
4:17 AM 35.6 °F 35.6 °F 100% 29.77 in 0.2 mi Calm Calm - N/A Fog Fog
4:43 AM 35.6 °F 35.6 °F 100% 29.77 in 0.5 mi Calm Calm - N/A Fog Fog
4:52 AM 34.0 °F 33.1 °F 96% 29.79 in 0.2 mi Calm Calm - N/A Fog Fog
5:27 AM 33.8 °F 33.8 °F 100% 29.77 in 0.5 mi Calm Calm - N/A Fog Fog
5:36 AM 33.8 °F 33.8 °F 100% 29.77 in 0.2 mi Calm Calm - N/A Fog Fog
5:45 AM 33.8 °F 33.8 °F 100% 29.77 in 0.2 mi Calm Calm - N/A Fog Fog
5:52 AM 32.0 °F 32.0 °F 100% 29.79 in 0.2 mi Calm Calm - N/A Fog Fog
6:21 AM 33.8 °F 33.8 °F 100% 29.77 in 0.5 mi Calm Calm - N/A Fog Fog
6:40 AM 33.8 °F 33.8 °F 100% 29.77 in 1.5 mi Calm Calm - N/A   Overcast
6:52 AM 33.1 °F 33.1 °F 100% 29.79 in 1.0 mi Calm Calm - N/A   Overcast
7:08 AM 35.6 °F 33.8 °F 93% 29.77 in 0.8 mi Calm Calm - N/A   Overcast
7:32 AM 33.8 °F 33.8 °F 100% 29.76 in 0.8 mi Calm Calm - N/A   Mostly Cloudy
7:52 AM 34.0 °F 33.1 °F 96% 29.78 in 0.2 mi Calm Calm - N/A Fog Fog
8:07 AM 35.6 °F 35.6 °F 100% 29.75 in 1.0 mi Calm Calm - N/A   Overcast
8:09 AM 37.4 °F 35.6 °F 93% 29.75 in 2.0 mi Calm Calm - N/A   Overcast
8:17 AM 37.4 °F 37.4 °F 100% 29.75 in 4.0 mi Calm Calm - N/A   Overcast
8:30 AM 37.4 °F 37.4 °F 100% 29.75 in 2.5 mi Calm Calm - N/A   Mostly Cloudy
8:40 AM 37.4 °F 37.4 °F 100% 29.75 in 3.0 mi Calm Calm - N/A   Mostly Cloudy
8:52 AM 39.9 °F 39.9 °F 100% 29.78 in 5.0 mi Calm Calm - N/A   Scattered Clouds
9:52 AM 46.9 °F 44.1 °F 90% 29.75 in 10.0 mi Calm Calm - N/A   Clear
10:52 AM 62.1 °F 46.9 °F 58% 29.71 in 10.0 mi SSW 6.9 mph - N/A   Clear
12:52 PM 64.9 °F 37.0 °F 36% 29.68 in 10.0 mi SW 13.8 mph 33.4 mph N/A   Scattered Clouds
1:52 PM 63.0 °F 37.9 °F 40% 29.68 in 10.0 mi WSW 13.8 mph 23.0 mph N/A   Overcast
2:52 PM 63.0 °F 34.0 °F 34% 29.67 in 10.0 mi West 13.8 mph 25.3 mph N/A   Mostly Cloudy
3:52 PM 61.0 °F 35.1 °F 38% 29.70 in 10.0 mi Variable 5.8 mph - N/A   Overcast
4:52 PM 57.0 °F 35.1 °F 44% 29.74 in 10.0 mi NW 9.2 mph 19.6 mph N/A   Overcast
5:52 PM 55.0 °F 36.0 °F 49% 29.78 in 10.0 mi Variable 6.9 mph 17.3 mph N/A   Overcast
6:52 PM 53.1 °F 37.0 °F 55% 29.81 in 10.0 mi Variable 3.5 mph - N/A   Mostly Cloudy
7:52 PM 52.0 °F 37.0 °F 57% 29.83 in 10.0 mi Variable 6.9 mph - N/A   Overcast
8:52 PM 51.1 °F 37.0 °F 59% 29.83 in 10.0 mi Variable 5.8 mph 17.3 mph N/A   Mostly Cloudy
9:52 PM 48.9 °F 36.0 °F 61% 29.84 in 10.0 mi Calm Calm - N/A   Mostly Cloudy
10:52 PM 48.9 °F 35.1 °F 59% 29.83 in 10.0 mi West 5.8 mph - N/A   Overcast
11:52 PM 48.0 °F 35.1 °F 61% 29.81 in 10.0 mi Variable 4.6 mph - N/A   Overcast